Powrót do katalogu

SL-6 R/B(2)

AktywnyHEO
NORAD 15741·ROCKET BODY·🇷🇺 Russia

Wystrzelony May 29, 1985 z Plesetsk Cosmodrome

Loading…

Następne Przeloty (najbliższe 24 godziny)

TLE

ŚwieżeSource: Space-Track

Epoka: Sep 14, 2026, 01:43 UTC

1 15741U 85040D   26257.07209319  .00000782  00000-0  50908-3 0  9990
2 15741  62.0004 274.3424 7406827 259.5555  17.3247  1.96954684296753

Śledź SL-6 R/B(2) w czasie rzeczywistym z AllMySat

Download on the App Store